Wind_Speed
15 16 23 10 5 11 16 11 9 3 4 7 7 12 13 12 9 4 8 4 20 14 12 16 18 18 19 18 20 22 24 25 26 27 28 27 26 25 23 21 19 18 17 16 16 16 15 15 15
14 15 15 20 9 16 17 13 10 10 5 8 8 9 15 15 15 21 17 16 15 16 15 18 19 20 21 23 23 24 26 26 26 26 25 23 21 19 18 17 16 16 14 14 14 14 14 14 14
13 11 10 9 23 20 15 5 11 11 7 8 5 9 12 9 21 23 16 13 20 20 18 19 20 21 23 25 27 27 26 25 24 22 21 19 17 16 15 14 14 13 12 12 12 12 12 12 12
14 13 10 13 18 24 16 9 1 8 3 8 8 5 7 18 24 23 16 17 21 22 21 21 22 22 24 27 28 27 26 24 22 20 17 16 14 12 12 11 10 10 10 10 11 11 11 11 11
15 13 15 15 18 16 24 17 12 12 12 7 9 7 5 17 25 23 18 22 20 26 24 24 24 23 24 27 30 28 26 23 20 17 15 13 11 9 9 8 8 8 9 10 10 11 12 13 13
15 15 19 21 19 15 14 20 14 10 13 11 8 8 5 12 25 24 21 25 20 30 26 24 26 24 25 27 29 29 26 22 19 16 14 11 8 7 6 6 6 7 8 8 9 11 12 13 14
22 20 25 24 23 20 14 12 17 15 12 12 9 7 7 13 22 24 20 25 27 35 29 27 28 27 26 27 29 28 27 24 20 16 14 10 7 5 4 3 4 6 8 9 10 11 13 14 14
23 25 29 27 28 27 18 18 13 17 13 11 10 8 9 11 14 21 23 27 32 37 32 30 31 29 29 29 29 29 27 24 21 17 14 12 9 7 4 1 2 5 8 10 12 13 14 15 16
29 30 35 33 29 25 20 21 18 18 17 13 10 11 11 10 7 8 22 27 32 40 36 33 33 32 32 30 30 29 27 24 22 19 16 14 11 8 5 3 3 6 9 11 13 14 15 16 18
28 32 38 32 30 29 25 23 21 24 22 17 15 15 14 13 11 10 13 23 37 42 39 37 36 36 34 33 31 30 29 27 25 22 18 15 11 9 6 5 6 8 11 13 15 16 17 16 19
25 39 31 31 31 29 26 27 24 29 33 25 19 20 20 17 17 14 17 18 32 46 43 41 39 38 37 35 34 33 31 28 26 22 19 15 13 12 9 8 9 11 12 15 17 17 17 18 20
27 27 29 29 29 27 28 26 28 30 41 38 39 31 28 24 25 20 18 20 34 46 46 44 42 40 39 38 35 34 32 29 26 23 20 17 14 13 12 12 13 13 15 16 19 19 19 20 21
24 25 23 23 28 30 28 32 26 28 28 34 50 41 37 36 33 30 25 23 23 34 45 45 44 42 41 39 37 35 33 30 28 26 23 20 18 16 15 16 16 16 18 19 18 20 19 21 23
13 20 24 22 24 26 27 30 27 34 26 28 47 43 33 25 35 33 29 23 21 44 33 45 47 47 44 42 28 38 35 33 31 28 26 23 21 19 19 19 19 18 18 20 20 20 21 21 27
14 18 19 22 25 27 24 30 33 26 33 37 39 49 28 21 27 34 31 29 20 20 53 29 45 50 48 45 45 42 39 37 34 32 30 26 25 25 22 23 22 22 21 20 18 21 19 21 28
11 15 19 18 20 22 21 28 17 27 33 32 33 52 40 32 38 34 35 32 25 21 26 36 20 36 47 48 44 45 45 43 40 35 33 32 31 30 27 27 26 26 24 22 20 23 20 29 31
13 17 12 14 10 12 14 19 26 22 16 21 37 37 47 37 38 39 34 39 38 30 22 25 43 29 25 51 53 49 47 48 41 37 30 34 25 36 32 29 31 32 30 25 29 28 21 27 30
10 11 11 12 9 11 16 18 20 18 18 18 29 33 46 31 32 37 32 25 33 41 37 34 29 34 55 36 53 46 47 50 47 46 43 44 43 38 37 33 34 40 36 28 26 25 27 29 29
10 12 13 12 12 13 18 22 24 24 24 22 23 34 39 45 38 45 39 33 27 25 36 39 38 32 39 58 53 51 35 48 49 49 50 48 42 39 38 37 38 38 34 27 47 33 21 25 26
12 14 15 14 14 13 19 26 28 29 28 26 27 28 30 40 45 43 41 40 39 33 30 35 38 39 35 34 64 47 41 40 46 51 50 52 49 44 37 37 46 38 31 30 21 23 22 22 26
14 15 15 15 17 20 21 28 22 16 17 14 20 25 34 35 37 43 42 40 39 40 38 35 34 37 37 33 33 47 61 61 42 43 48 52 49 43 43 40 40 38 36 29 30 24 20 23 26
17 14 13 14 16 18 12 14 15 18 18 17 15 12 12 20 29 33 39 42 42 41 40 40 41 38 39 40 41 40 39 43 43 48 44 45 45 46 42 44 41 34 29 25 28 26 23 25 27
16 8 13 16 20 24 25 19 19 9 10 10 9 8 10 10 17 22 28 34 36 39 39 40 40 43 42 43 45 48 49 47 46 44 43 44 47 42 42 39 38 34 31 35 31 31 30 28 28
11 12 15 19 20 20 25 21 15 12 9 12 10 8 9 8 9 17 21 24 29 32 35 35 38 40 43 48 48 49 51 52 51 47 42 43 45 43 42 44 39 36 34 32 32 33 35 32 29
13 14 15 13 14 12 3 8 20 9 8 8 12 10 10 10 11 13 18 23 25 27 30 34 36 37 41 47 53 51 52 53 55 57 49 43 40 40 38 41 46 38 32 35 42 35 36 33 31
15 15 17 17 12 10 8 9 3 12 13 8 6 7 6 7 9 13 18 24 26 28 29 31 34 39 40 43 48 56 57 55 57 59 59 53 51 52 51 47 44 45 43 40 36 36 36 32 32
16 16 14 18 22 21 27 19 15 13 7 7 6 6 10 13 16 18 20 22 27 28 30 32 33 35 38 42 47 49 55 59 58 58 60 61 59 55 55 53 50 48 47 42 37 35 36 33 35
21 20 13 17 11 18 18 17 14 10 7 8 6 9 12 16 20 21 24 28 30 31 31 32 34 35 37 40 43 48 51 55 61 57 58 59 55 54 55 53 51 53 50 45 36 35 33 36 36
17 18 21 21 23 12 12 9 7 6 6 9 10 13 20 20 19 22 24 28 32 34 34 35 35 38 39 40 42 46 49 51 56 61 55 53 53 55 53 50 49 51 50 43 34 34 35 35 37
22 25 23 25 20 22 24 26 20 11 9 10 14 21 21 21 20 21 23 26 30 34 38 40 41 41 40 42 41 43 49 49 51 58 58 52 51 49 49 49 48 49 42 40 35 31 36 34 34
Wind_Direction
265 264 259 279 266 238 238 234 204 167 170 189 212 220 220 228 221 290 232 295 216 194 183 157 149 139 130 129 129 127 126 125 122 119 116 112 108 105 103 101 96 90 82 76 70 63 57 53 50
255 262 264 246 255 243 238 228 224 207 217 186 187 225 231 248 253 243 264 250 213 194 188 170 158 148 137 137 134 131 130 129 127 123 120 115 111 108 102 96 90 83 76 67 59 51 42 37 34
260 258 248 239 233 250 255 271 233 224 240 234 222 228 239 239 233 240 241 226 201 196 187 178 168 156 143 140 139 137 135 133 130 127 122 117 111 105 98 91 82 73 65 56 47 41 32 23 15
258 264 263 235 236 234 242 237 283 226 260 225 233 264 252 236 230 235 236 202 193 195 186 180 179 164 149 145 145 144 141 139 137 132 127 120 112 103 91 83 73 62 52 40 29 22 15 6 0
251 253 250 250 243 243 247 250 257 252 253 250 257 251 261 245 237 228 220 195 201 193 186 181 181 170 160 152 150 149 148 146 144 140 133 125 115 102 89 77 65 52 43 30 18 9 3 357 353
249 241 243 245 246 247 249 248 241 251 246 248 260 286 239 258 236 224 212 202 203 191 187 185 184 177 169 159 156 154 154 153 152 147 141 133 121 110 94 77 59 34 25 13 7 3 357 352 347
242 245 248 251 249 244 240 250 240 246 243 239 246 282 267 280 242 226 209 202 196 189 187 184 187 180 177 170 163 160 159 159 158 159 154 152 151 151 128 90 42 7 356 351 346 347 342 340 341
238 244 250 248 247 249 245 246 247 231 238 230 243 241 286 257 257 223 211 205 198 187 188 187 190 186 182 179 173 168 167 168 170 171 170 171 176 182 179 165 16 351 338 341 339 333 328 328 332
243 239 245 244 245 250 248 239 243 235 240 251 255 248 250 280 293 241 219 214 203 192 189 190 195 193 189 184 181 177 176 177 179 182 183 188 188 195 205 258 311 323 323 326 326 324 320 322 327
232 239 243 246 247 249 246 243 235 244 247 243 262 270 260 277 300 275 227 219 202 201 193 192 197 199 195 190 188 185 182 182 188 191 193 193 199 212 229 263 300 314 318 318 317 319 315 317 320
239 242 246 247 246 244 248 245 251 251 247 243 264 260 259 270 274 298 249 214 206 208 200 197 198 200 201 198 193 191 189 190 192 193 201 206 213 226 240 266 285 299 308 312 312 312 312 314 317
241 242 243 244 242 250 248 252 248 252 254 253 258 266 266 261 264 274 286 239 208 210 208 203 202 203 204 204 201 199 197 195 196 201 208 219 224 234 249 265 280 296 303 308 309 311 312 313 315
243 243 250 244 239 247 249 249 254 252 259 254 245 260 277 274 274 262 279 249 220 219 218 213 211 210 208 210 208 207 205 203 202 211 218 225 234 243 254 268 279 290 295 300 304 303 307 310 312
256 242 242 246 245 250 253 255 256 254 266 248 233 248 271 272 268 263 266 270 244 222 237 221 217 214 213 216 216 222 217 216 216 221 229 231 238 246 256 265 273 284 287 294 296 299 304 323 322
248 256 257 251 251 251 254 258 249 258 249 248 250 235 259 269 271 271 267 264 258 246 224 231 228 221 215 217 217 224 227 226 228 227 231 235 241 251 255 263 272 277 280 280 292 300 308 315 317
260 256 253 256 242 247 238 253 245 248 249 250 235 236 253 264 271 269 273 268 261 258 241 228 214 227 223 214 218 224 226 233 235 237 249 236 245 251 255 263 268 275 273 278 290 306 305 314 308
248 256 240 232 240 228 239 254 237 250 248 243 234 233 241 249 257 265 269 257 259 255 249 252 245 228 234 227 225 229 230 233 234 233 237 228 230 252 255 260 266 272 268 277 281 302 312 298 298
248 248 243 246 250 250 249 250 238 256 254 252 231 225 229 244 254 256 257 252 254 247 249 245 240 238 231 242 234 231 234 237 232 239 229 239 247 252 255 259 261 266 271 265 268 291 283 288 298
254 255 255 251 256 265 259 255 254 258 255 253 248 236 218 245 246 256 256 249 243 229 245 259 248 243 236 237 229 232 235 237 234 247 246 244 245 250 257 258 266 267 263 286 293 274 282 290 300
259 259 260 265 266 270 273 268 264 262 261 252 249 249 251 236 245 249 253 256 250 241 235 224 237 246 239 242 230 234 228 241 247 246 247 249 250 252 253 256 255 263 273 294 286 259 276 293 299
261 262 269 273 277 284 285 285 271 255 242 235 238 234 239 242 244 248 256 258 257 254 245 240 235 230 233 235 225 231 241 238 249 253 254 249 251 252 260 255 257 258 263 276 279 275 278 286 294
270 266 265 270 281 282 292 290 266 280 255 246 209 216 222 236 240 242 247 255 257 257 252 246 239 235 233 230 230 230 237 242 239 239 242 248 249 254 255 253 259 257 261 274 280 277 277 280 291
269 263 267 273 276 283 274 263 279 229 206 192 185 195 210 252 244 247 247 246 252 255 251 251 246 241 237 236 234 234 236 237 241 241 241 244 248 249 250 251 255 248 259 266 275 277 278 276 283
243 273 272 272 275 264 262 246 262 219 219 208 200 268 244 246 244 251 247 248 249 251 257 255 247 243 242 236 236 237 237 240 241 243 245 244 243 245 252 257 250 245 258 269 273 271 270 273 281
248 260 276 268 226 255 132 245 243 221 196 210 243 252 257 253 253 268 263 263 262 263 260 259 259 251 242 241 240 239 239 241 244 245 244 244 245 247 248 258 258 251 257 274 269 263 266 272 283
251 259 277 285 276 272 178 252 231 213 212 265 234 221 248 253 266 279 273 268 269 263 259 260 259 256 252 244 240 240 240 239 240 242 245 241 246 251 255 256 257 258 257 254 257 259 266 273 283
265 241 270 278 269 265 262 252 256 245 233 213 213 246 273 276 280 285 280 288 283 277 274 265 257 258 258 254 248 242 242 240 240 241 244 248 247 250 251 248 252 254 253 253 253 257 266 274 281
246 261 253 228 265 259 251 243 238 181 204 232 241 271 285 291 285 282 275 277 284 277 277 275 273 268 264 260 254 248 244 241 239 239 240 245 244 241 243 245 248 250 250 253 249 255 264 273 281
234 238 237 259 259 256 272 266 140 192 242 251 263 289 296 295 292 283 283 283 281 276 276 278 275 271 275 266 261 254 246 244 240 235 236 238 241 238 239 240 241 245 249 250 245 255 266 273 282
253 256 250 245 248 240 259 267 277 256 267 266 290 298 294 296 293 293 293 289 288 280 273 274 276 276 278 279 276 259 249 244 242 235 230 231 235 237 236 236 240 244 250 246 245 258 265 276 278
Height
3159 3160 3162 3165 3173 3168 3164 3166 3165 3167 3168 3168 3168 3170 3175 3175 3177 3179 3175 3174 3175 3177 3179 3177 3176 3175 3174 3176 3178 3179 3180 3182 3184 3184 3185 3186 3187 3189 3189 3190 3190 3190 3191 3190 3190 3190 3189 3189 3188
3158 3159 3161 3163 3168 3163 3162 3164 3166 3166 3166 3166 3167 3169 3170 3172 3170 3170 3172 3171 3172 3176 3178 3178 3176 3176 3174 3175 3179 3181 3183 3184 3186 3187 3187 3188 3189 3191 3191 3191 3192 3192 3191 3191 3192 3191 3191 3189 3189
3157 3157 3161 3162 3163 3161 3160 3161 3165 3163 3163 3165 3166 3165 3165 3168 3165 3165 3166 3168 3169 3174 3176 3178 3177 3176 3174 3176 3178 3182 3184 3186 3187 3188 3189 3190 3191 3192 3193 3193 3193 3193 3193 3193 3192 3192 3191 3191 3189
3156 3157 3159 3158 3158 3160 3160 3162 3162 3162 3163 3163 3163 3165 3164 3161 3161 3161 3163 3165 3167 3171 3175 3177 3178 3177 3175 3175 3178 3182 3185 3186 3188 3189 3191 3192 3192 3194 3194 3194 3194 3194 3194 3193 3193 3193 3192 3191 3190
3154 3155 3156 3155 3156 3156 3156 3158 3160 3160 3162 3162 3162 3163 3162 3158 3156 3158 3160 3162 3164 3168 3172 3174 3176 3177 3176 3175 3177 3180 3185 3187 3189 3191 3192 3193 3194 3195 3194 3194 3194 3195 3194 3194 3194 3193 3192 3192 3190
3153 3153 3152 3151 3152 3152 3152 3154 3158 3158 3158 3159 3160 3159 3159 3154 3152 3154 3157 3159 3160 3165 3170 3172 3175 3176 3177 3176 3177 3179 3183 3186 3189 3191 3192 3193 3195 3195 3195 3195 3195 3195 3194 3194 3194 3193 3192 3191 3190
3147 3150 3147 3147 3148 3148 3149 3150 3153 3155 3155 3157 3155 3156 3155 3150 3149 3151 3153 3156 3157 3161 3167 3170 3173 3175 3176 3177 3176 3179 3182 3185 3188 3190 3191 3193 3194 3195 3195 3195 3194 3195 3194 3194 3193 3192 3192 3190 3188
3144 3146 3143 3142 3143 3144 3145 3144 3148 3151 3152 3149 3150 3153 3152 3147 3146 3148 3150 3153 3155 3157 3162 3167 3170 3172 3174 3175 3176 3178 3180 3183 3186 3188 3190 3191 3192 3194 3194 3194 3193 3193 3193 3193 3192 3191 3190 3189 3187
3137 3139 3135 3136 3139 3141 3141 3140 3141 3145 3146 3148 3147 3147 3146 3145 3145 3145 3145 3149 3153 3153 3157 3163 3167 3170 3172 3173 3175 3177 3178 3181 3184 3187 3188 3190 3191 3192 3192 3193 3192 3192 3192 3191 3190 3189 3188 3186 3185
3129 3130 3129 3134 3136 3137 3138 3138 3138 3138 3140 3144 3145 3144 3143 3143 3143 3143 3142 3144 3148 3151 3153 3158 3163 3167 3169 3171 3173 3175 3176 3178 3181 3183 3186 3187 3189 3190 3191 3192 3191 3191 3191 3190 3189 3187 3186 3184 3183
3123 3120 3126 3128 3130 3132 3132 3134 3136 3131 3133 3138 3138 3138 3139 3140 3141 3140 3139 3138 3143 3146 3148 3153 3157 3162 3165 3168 3170 3172 3173 3176 3178 3181 3184 3186 3187 3188 3189 3190 3190 3189 3188 3188 3187 3186 3185 3184 3182
3116 3118 3120 3123 3124 3125 3126 3128 3126 3127 3127 3130 3133 3132 3133 3136 3136 3137 3137 3137 3137 3140 3144 3147 3152 3156 3161 3164 3166 3169 3171 3173 3177 3179 3181 3183 3185 3186 3187 3187 3188 3187 3186 3185 3185 3184 3183 3182 3181
3110 3113 3113 3115 3118 3119 3120 3117 3119 3120 3120 3121 3126 3129 3129 3130 3131 3133 3132 3133 3134 3135 3139 3143 3147 3152 3156 3160 3163 3165 3168 3171 3174 3176 3178 3180 3182 3183 3184 3185 3185 3184 3184 3183 3182 3181 3180 3180 3178
3108 3107 3109 3109 3110 3111 3111 3111 3114 3112 3112 3114 3121 3122 3124 3123 3124 3127 3128 3130 3132 3130 3135 3137 3141 3145 3149 3156 3161 3163 3164 3167 3169 3172 3174 3176 3178 3179 3180 3181 3181 3181 3180 3180 3179 3178 3178 3178 3176
3102 3102 3103 3102 3103 3104 3107 3104 3103 3108 3103 3106 3112 3113 3116 3118 3118 3119 3122 3126 3129 3129 3130 3134 3135 3138 3142 3147 3151 3155 3160 3163 3165 3167 3169 3172 3174 3175 3176 3177 3177 3176 3177 3176 3176 3176 3176 3174 3171
3099 3100 3099 3098 3098 3099 3100 3096 3099 3097 3097 3098 3103 3106 3111 3111 3112 3114 3115 3119 3122 3124 3123 3129 3130 3132 3138 3142 3144 3146 3151 3155 3160 3163 3166 3167 3169 3170 3172 3173 3173 3172 3172 3174 3174 3173 3174 3171 3169
3097 3095 3094 3094 3093 3094 3094 3093 3096 3090 3091 3090 3093 3099 3103 3106 3105 3107 3109 3113 3115 3118 3122 3122 3122 3127 3132 3135 3138 3140 3144 3147 3152 3156 3158 3161 3161 3164 3167 3169 3168 3167 3168 3169 3170 3173 3172 3168 3166
3090 3092 3092 3092 3091 3090 3090 3090 3089 3088 3088 3087 3088 3090 3094 3096 3097 3099 3102 3105 3106 3110 3115 3118 3119 3119 3125 3130 3130 3131 3137 3140 3143 3147 3153 3153 3156 3159 3161 3163 3162 3162 3165 3163 3169 3171 3167 3163 3162
3092 3091 3090 3089 3089 3087 3086 3085 3084 3084 3084 3083 3081 3082 3083 3086 3089 3090 3092 3096 3099 3099 3104 3103 3112 3114 3116 3120 3122 3125 3126 3131 3135 3140 3144 3146 3149 3150 3154 3156 3156 3158 3159 3160 3158 3160 3158 3158 3157
3089 3088 3087 3086 3085 3084 3082 3078 3077 3075 3075 3076 3077 3077 3078 3080 3080 3081 3083 3086 3088 3092 3095 3100 3100 3102 3108 3111 3114 3118 3122 3126 3129 3132 3135 3138 3141 3144 3146 3149 3151 3152 3155 3156 3154 3154 3152 3152 3151
3086 3085 3084 3084 3082 3080 3076 3069 3066 3067 3067 3067 3067 3069 3068 3072 3074 3072 3074 3077 3079 3083 3088 3089 3092 3096 3099 3102 3106 3113 3116 3120 3120 3126 3127 3131 3134 3137 3139 3142 3144 3146 3147 3148 3152 3149 3146 3146 3146
3082 3081 3081 3081 3080 3075 3073 3065 3062 3063 3062 3060 3062 3063 3064 3063 3062 3064 3068 3069 3070 3072 3076 3082 3085 3087 3091 3094 3098 3102 3108 3112 3118 3119 3120 3122 3125 3129 3130 3133 3136 3139 3141 3140 3143 3142 3141 3140 3139
3080 3078 3079 3077 3075 3072 3068 3065 3055 3057 3057 3058 3059 3060 3060 3059 3056 3057 3060 3061 3062 3063 3067 3068 3073 3077 3081 3084 3088 3093 3098 3104 3110 3110 3111 3113 3116 3120 3122 3125 3129 3132 3135 3135 3135 3136 3136 3134 3134
3076 3076 3074 3071 3069 3062 3056 3057 3048 3052 3054 3055 3056 3056 3056 3055 3053 3052 3053 3054 3054 3055 3054 3057 3061 3066 3071 3075 3077 3081 3084 3090 3095 3099 3102 3105 3107 3112 3115 3119 3121 3124 3127 3127 3129 3128 3129 3129 3128
3072 3072 3064 3059 3054 3050 3052 3055 3049 3050 3051 3052 3053 3052 3050 3049 3051 3050 3048 3048 3048 3048 3048 3050 3050 3055 3060 3062 3065 3069 3072 3076 3081 3087 3092 3096 3099 3102 3107 3111 3114 3116 3119 3120 3121 3121 3122 3122 3121
3065 3066 3063 3052 3046 3043 3048 3047 3041 3044 3046 3045 3045 3045 3046 3046 3045 3042 3041 3040 3040 3040 3040 3041 3042 3044 3045 3048 3052 3055 3059 3063 3067 3074 3080 3086 3090 3094 3099 3104 3106 3108 3109 3111 3113 3114 3115 3114 3115
3061 3061 3060 3057 3053 3049 3044 3040 3042 3041 3043 3043 3043 3042 3042 3040 3037 3036 3035 3033 3033 3033 3033 3034 3034 3032 3033 3036 3037 3040 3044 3048 3054 3061 3067 3072 3079 3085 3089 3093 3097 3098 3100 3101 3102 3106 3107 3108 3109
3056 3057 3055 3053 3047 3037 3031 3029 3031 3036 3039 3040 3040 3039 3037 3035 3034 3031 3028 3027 3025 3024 3024 3024 3023 3024 3025 3024 3026 3027 3030 3034 3040 3048 3054 3060 3067 3074 3078 3084 3087 3090 3091 3092 3094 3098 3099 3101 3100
3048 3047 3049 3048 3042 3037 3030 3025 3025 3033 3035 3035 3034 3033 3031 3027 3025 3022 3021 3019 3017 3016 3016 3015 3015 3014 3013 3015 3015 3015 3018 3022 3026 3034 3041 3049 3056 3063 3067 3072 3076 3080 3082 3084 3087 3090 3092 3093 3091
3042 3040 3041 3040 3037 3034 3034 3025 3027 3029 3030 3029 3028 3027 3024 3020 3016 3014 3012 3010 3008 3007 3005 3005 3005 3004 3004 3002 3003 3006 3006 3009 3014 3020 3030 3039 3045 3052 3057 3063 3067 3071 3074 3076 3080 3084 3084 3084 3082